GW5470 Weather Reports


time (UTC)temp
C
wind
direction
speed
KPH
gust
KPH
rain 1hr
cm
rain 24hr
cm
rain mn
cm
humidity
%
barometer
mb
20260510164347 18 62 4.8 4.8 0.00 0.08 0.08 63 1016.7
20260510163846 18 209 1.6 3.2 0.00 0.08 0.08 69 1016.9
20260510163344 18 242 3.2 3.2 0.00 0.08 0.08 67 1017.0
20260510162843 17 354 9.7 11.3 0.00 0.08 0.08 70 1017.0
20260510162341 17 260 3.2 4.8 0.00 0.08 0.08 69 1017.1
20260510161836 17 204 1.6 1.6 0.00 0.08 0.08 76 1017.0
20260510161332 17 80 3.2 3.2 0.00 0.08 0.08 71 1017.0
20260510160830 17 292 3.2 4.8 0.00 0.08 0.08 72 1017.1
20260510160321 17 146 1.6 3.2 0.00 0.08 0.08 75 1016.9
20260510155820 17 152 0.0 1.6 0.00 0.08 0.08 75 1017.0
20260510155318 16 135 1.6 1.6 0.00 0.08 0.08 79 1016.8
20260510154813 17 206 1.6 1.6 0.00 0.08 0.08 78 1016.5
20260510154309 16 351 4.8 4.8 0.00 0.08 0.08 80 1016.7
20260510153803 16 178 0.0 0.0 0.00 0.08 0.08 81 1016.7
20260510153300 16 340 3.2 4.8 0.00 0.08 0.08 83 1016.6
20260510152757 16 197 1.6 1.6 0.00 0.08 0.08 81 1016.5
20260510152253 16 279 3.2 3.2 0.00 0.08 0.08 84 1016.3
20260510151749 16 343 4.8 4.8 0.00 0.08 0.08 85 1016.4
20260510151248 15 157 1.6 3.2 0.00 0.08 0.08 83 1016.1
20260510150743 16 171 0.0 0.0 0.00 0.08 0.08 86 1016.2
20260510150240 15 209 1.6 1.6 0.00 0.08 0.08 89 1015.8
20260510145736 15 228 1.6 3.2 0.00 0.08 0.08 87 1015.9
20260510145232 15 226 3.2 3.2 0.00 0.08 0.08 88 1015.7
20260510144723 15 161 1.6 1.6 0.00 0.08 0.08 89 1015.5
20260510144220 15 194 0.0 0.0 0.00 0.08 0.08 89 1015.7
20260510143714 15 161 1.6 1.6 0.00 0.08 0.08 90 1015.6
20260510143211 15 326 3.2 4.8 0.00 0.08 0.08 93 1015.5
20260510142707 14 193 1.6 3.2 0.00 0.08 0.08 95 1015.6
20260510142204 14 225 3.2 3.2 0.00 0.08 0.08 96 1015.4
20260510141701 13 204 1.6 1.6 0.00 0.08 0.08 96 1015.6
20260510141200 13 198 1.6 1.6 0.00 0.08 0.08 97 1015.6
20260510140655 14 184 0.0 0.0 0.00 0.08 0.08 97 1015.5
20260510140155 13 183 0.0 0.0 0.13 0.08 0.08 97 1015.3
20260510135650 13 183 0.0 1.6 0.13 0.08 0.08 97 1015.3
20260510135146 13 183 0.0 0.0 0.00 0.05 0.05 96 1015.4
20260510134644 13 184 0.0 0.0 0.18 0.05 0.05 96 1015.5
20260510134141 13 183 0.0 0.0 0.30 0.05 0.05 95 1015.8
20260510133637 13 181 0.0 1.6 0.13 0.03 0.03 94 1015.8
20260510133132 14 161 0.0 1.6 0.00 0.00 0.00 92 1015.6
20260510132629 13 184 0.0 1.6 0.00 0.00 0.00 94 1015.9
20260510132127 13 192 0.0 0.0 0.00 0.00 0.00 97 1015.2
20260510131624 13 194 1.6 1.6 0.00 0.00 0.00 98 1015.1
20260510131121 13 185 0.0 0.0 0.00 0.00 0.00 98 1015.2
20260510130617 13 169 0.0 1.6 0.00 0.00 0.00 99 1014.8
20260510130115 13 189 0.0 0.0 0.00 0.00 0.00 99 1015.0
20260510125611 13 189 0.0 0.0 0.00 0.00 0.00 99 1015.1
20260510125107 13 190 0.0 0.0 0.00 0.00 0.00 99 1015.0
20260510124604 12 190 0.0 0.0 0.00 0.00 0.00 99 1015.1
20260510124101 12 189 0.0 0.0 0.00 0.00 0.00 99 1014.7
20260510123556 12 189 0.0 0.0 0.00 0.00 0.00 99 1014.7
20260510123053 12 189 0.0 0.0 0.00 0.00 0.00 99 1014.9
20260510122548 12 189 0.0 0.0 0.00 0.00 0.00 99 1014.7
20260510122045 12 189 0.0 0.0 0.00 0.00 0.00 99 1014.5
20260510121542 12 189 0.0 0.0 0.00 0.00 0.00 99 1014.9
20260510121039 11 189 0.0 0.0 0.00 0.00 0.00 99 1014.5
20260510120537 11 189 0.0 0.0 0.00 0.00 0.00 99 1014.5
20260510120032 11 189 0.0 0.0 0.00 0.00 0.00 99 1014.4
20260510115529 11 189 0.0 0.0 0.00 0.00 0.00 99 1014.3
20260510115026 11 189 0.0 0.0 0.00 0.00 0.00 99 1014.5
20260510114522 11 189 0.0 0.0 0.00 0.00 0.00 99 1014.2
20260510114018 10 189 0.0 0.0 0.00 0.00 0.00 99 1014.1
20260510113513 10 189 0.0 0.0 0.00 0.00 0.00 99 1014.0
20260510113011 10 190 0.0 0.0 0.00 0.00 0.00 99 1013.8
20260510112508 10 190 0.0 0.0 0.00 0.00 0.00 99 1013.9
20260510112004 10 189 0.0 0.0 0.00 0.00 0.00 99 1013.7
20260510111500 10 189 0.0 0.0 0.00 0.00 0.00 99 1013.7
20260510110956 9 189 0.0 0.0 0.00 0.00 0.00 99 1013.6
20260510110453 9 189 0.0 0.0 0.00 0.00 0.00 99 1013.5
20260510105949 9 189 0.0 0.0 0.00 0.00 0.00 99 1013.1
20260510105444 9 189 0.0 0.0 0.00 0.00 0.00 99 1013.1
20260510104940 9 189 0.0 0.0 0.00 0.00 0.00 99 1013.0
20260510104437 8 189 0.0 0.0 0.00 0.00 0.00 99 1013.0
20260510103933 8 189 0.0 0.0 0.00 0.00 0.00 99 1013.0
20260510103432 8 201 0.0 0.0 0.00 0.00 0.00 99 1012.9
20260510102931 8 201 0.0 0.0 0.00 0.00 0.00 99 1012.8
20260510102428 8 201 0.0 0.0 0.00 0.00 0.00 99 1012.9
20260510101925 8 201 0.0 0.0 0.00 0.00 0.00 99 1012.6
20260510101423 8 201 0.0 0.0 0.00 0.00 0.00 99 1012.7
20260510100921 8 201 0.0 0.0 0.00 0.00 0.00 99 1012.8
20260510100417 8 201 0.0 0.0 0.00 0.00 0.00 99 1012.6
20260510095913 8 201 0.0 0.0 0.00 0.00 0.00 99 1012.5
20260510095408 8 201 0.0 0.0 0.00 0.00 0.00 99 1012.4
20260510094908 8 201 0.0 0.0 0.00 0.00 0.00 99 1012.5
20260510094403 8 201 0.0 0.0 0.00 0.00 0.00 99 1012.4
20260510093859 8 201 0.0 0.0 0.00 0.00 0.00 99 1012.2
20260510093355 8 201 0.0 0.0 0.00 0.00 0.00 99 1012.2
20260510092852 8 201 0.0 0.0 0.00 0.00 0.00 99 1012.2
20260510092348 8 201 0.0 0.0 0.00 0.00 0.00 99 1012.0
20260510091843 8 201 0.0 0.0 0.00 0.00 0.00 99 1011.8
20260510091341 8 201 0.0 0.0 0.00 0.00 0.00 99 1011.9
20260510090837 8 201 0.0 0.0 0.00 0.00 0.00 99 1011.7
20260510090329 8 201 0.0 0.0 0.00 0.00 0.00 99 1011.7
20260510085824 8 201 0.0 0.0 0.00 0.00 0.00 99 1011.7
20260510085318 8 201 0.0 0.0 0.00 0.00 0.00 99 1011.6
20260510084815 8 201 0.0 0.0 0.00 0.00 0.00 99 1011.8
20260510084312 8 201 0.0 0.0 0.00 0.00 0.00 99 1011.6
20260510083809 9 201 0.0 0.0 0.00 0.00 0.00 99 1011.8
20260510083306 9 201 0.0 0.0 0.00 0.00 0.00 99 1011.5
20260510082801 8 201 0.0 0.0 0.00 0.00 0.00 99 1011.6
20260510082258 8 201 0.0 0.0 0.00 0.00 0.00 99 1011.5
20260510081756 9 201 0.0 0.0 0.00 0.00 0.00 99 1011.6
20260510081253 8 201 0.0 0.0 0.00 0.00 0.00 99 1011.4
20260510080749 9 201 0.0 0.0 0.00 0.00 0.00 99 1011.7
20260510080244 9 201 0.0 0.0 0.00 0.00 0.00 99 1011.6
20260510075741 9 201 0.0 0.0 0.00 0.00 0.00 99 1011.6
20260510075239 9 201 0.0 0.0 0.00 0.00 0.00 99 1011.5
20260510074736 9 201 0.0 0.0 0.00 0.00 0.00 99 1011.7
20260510074232 9 201 0.0 0.0 0.00 0.00 0.00 99 1011.6
20260510073728 9 201 0.0 0.0 0.00 0.00 0.00 99 1011.7
20260510073224 9 201 0.0 0.0 0.00 0.00 0.00 99 1011.5
20260510072720 9 201 0.0 0.0 0.00 0.00 0.00 99 1011.5
20260510072217 9 201 0.0 0.0 0.00 0.00 0.00 99 1011.6
20260510071714 9 201 0.0 0.0 0.00 0.00 0.00 99 1011.3
20260510071210 9 201 0.0 0.0 0.00 0.00 0.00 99 1011.3
20260510070709 9 201 0.0 0.0 0.00 0.00 0.00 99 1011.2
20260510070205 9 201 0.0 0.0 0.00 0.00 0.00 99 1011.4
20260510065700 9 201 0.0 0.0 0.00 0.00 0.00 99 1011.4
20260510065157 9 201 0.0 0.0 0.00 0.00 0.00 99 1011.3
20260510064653 9 201 0.0 0.0 0.00 0.00 0.00 99 1011.3
20260510064151 9 201 0.0 0.0 0.00 0.00 0.00 99 1011.4
20260510063648 10 201 0.0 0.0 0.00 0.00 0.00 99 1011.3
20260510063144 10 201 0.0 0.0 0.00 0.00 0.00 99 1011.6
20260510062640 10 201 0.0 0.0 0.00 0.00 0.00 99 1011.7
20260510062137 10 201 0.0 0.0 0.00 0.00 0.00 99 1011.2
20260510061632 10 201 0.0 0.0 0.00 0.00 0.00 99 1011.1
20260510061130 10 201 0.0 0.0 0.00 0.00 0.00 99 1011.4
20260510060625 10 201 0.0 0.0 0.00 0.00 0.00 99 1011.2
20260510060122 10 201 0.0 0.0 0.00 0.00 0.00 99 1011.2
20260510055618 10 201 0.0 0.0 0.00 0.00 0.00 99 1011.3
20260510055117 10 201 0.0 0.0 0.00 0.00 0.00 99 1011.2
20260510054611 10 201 0.0 0.0 0.00 0.00 0.00 99 1011.3
20260510054107 10 201 0.0 0.0 0.00 0.00 0.00 99 1011.5
20260510053606 10 201 0.0 0.0 0.00 0.00 0.00 99 1011.2
20260510053103 10 201 0.0 0.0 0.00 0.00 0.00 99 1011.3
20260510052559 10 201 0.0 0.0 0.00 0.00 0.00 99 1011.1
20260510052056 10 201 0.0 0.0 0.00 0.00 0.00 99 1011.2
20260510051551 10 201 0.0 0.0 0.00 0.00 0.00 99 1011.3
20260510051049 10 201 0.0 0.0 0.00 0.00 0.00 98 1011.3
20260510050546 10 201 0.0 0.0 0.00 0.00 0.00 98 1011.2
20260510050043 10 201 0.0 0.0 0.00 0.00 0.00 98 1011.3
20260510045540 10 201 0.0 0.0 0.00 0.00 0.00 98 1011.3
20260510045036 10 201 0.0 0.0 0.00 0.00 0.00 98 1011.3
20260510044533 10 201 0.0 0.0 0.00 0.00 0.00 98 1011.2
20260510044030 10 201 0.0 0.0 0.00 0.00 0.00 98 1011.3
20260510043525 10 201 0.0 0.0 0.00 0.00 0.00 98 1011.2
20260510043021 10 201 0.0 0.0 0.00 0.00 0.00 98 1011.2
20260510042515 10 201 0.0 0.0 0.00 0.00 0.00 98 1011.2
20260510042010 10 201 0.0 0.0 0.00 0.00 0.00 98 1011.2
20260510041509 10 201 0.0 0.0 0.00 0.00 0.00 98 1011.4
20260510041006 10 201 0.0 0.0 0.00 0.00 0.00 98 1011.1
20260510040502 10 201 0.0 0.0 0.00 0.00 0.00 98 1011.3
20260510035958 10 201 0.0 0.0 0.00 0.64 0.64 98 1011.2
20260510035455 10 201 0.0 0.0 0.00 0.64 0.64 98 1011.5
20260510034954 10 201 0.0 0.0 0.00 0.64 0.64 98 1011.4
20260510034453 10 201 0.0 0.0 0.00 0.64 0.64 98 1011.1
20260510033949 10 201 0.0 0.0 0.00 0.64 0.64 97 1011.2
20260510033445 10 201 0.0 0.0 0.00 0.64 0.64 97 1011.2
20260510032943 10 201 0.0 0.0 0.00 0.64 0.64 97 1011.2
20260510032439 10 201 0.0 0.0 0.00 0.64 0.64 97 1011.2
20260510031939 10 201 0.0 0.0 0.00 0.64 0.64 97 1011.1
20260510031435 10 201 0.0 0.0 0.00 0.64 0.64 97 1011.1
20260510030931 10 201 0.0 0.0 0.00 0.64 0.64 97 1011.0
20260510030426 10 201 0.0 0.0 0.00 0.64 0.64 97 1010.9
20260510025924 10 201 0.0 0.0 0.00 0.64 0.64 97 1010.9
20260510025421 11 201 0.0 0.0 0.00 0.64 0.64 97 1010.8
20260510024919 10 201 0.0 0.0 0.00 0.64 0.64 96 1010.9
20260510024415 10 201 0.0 0.0 0.00 0.64 0.64 96 1010.9
20260510023911 11 201 0.0 0.0 0.00 0.64 0.64 96 1011.1
20260510023408 11 201 0.0 0.0 0.00 0.64 0.64 96 1010.7
20260510022905 11 201 0.0 0.0 0.00 0.64 0.64 96 1010.8
20260510022404 11 201 0.0 0.0 0.00 0.64 0.64 96 1010.6
20260510021903 11 201 0.0 0.0 0.00 0.64 0.64 95 1010.6
20260510021401 11 201 0.0 0.0 0.00 0.64 0.64 95 1010.7
20260510020857 11 201 0.0 0.0 0.00 0.64 0.64 95 1010.6
20260510020353 11 201 0.0 0.0 0.00 0.64 0.64 95 1010.6
20260510015848 11 201 0.0 0.0 0.00 0.64 0.64 95 1010.5
20260510015344 11 201 0.0 0.0 0.00 0.64 0.64 94 1010.4
20260510014840 11 201 0.0 0.0 0.00 0.64 0.64 94 1010.2
20260510014337 11 201 0.0 0.0 0.00 0.64 0.64 94 1009.9
20260510013833 12 201 0.0 0.0 0.00 0.64 0.64 93 1010.0
20260510013329 12 201 0.0 0.0 0.00 0.64 0.64 93 1010.0
20260510012824 12 201 0.0 0.0 0.00 0.64 0.64 92 1009.9
20260510012323 12 201 0.0 0.0 0.00 0.64 0.64 92 1009.6
20260510011818 12 201 0.0 0.0 0.00 0.64 0.64 91 1009.6
20260510011314 12 201 0.0 0.0 0.00 0.64 0.64 91 1009.8
20260510010811 12 201 0.0 0.0 0.00 0.64 0.64 91 1009.4
20260510010308 12 201 0.0 0.0 0.00 0.64 0.64 90 1009.4
20260510005805 12 201 0.0 0.0 0.00 0.64 0.64 90 1009.4
20260510005301 13 201 0.0 0.0 0.00 0.64 0.64 89 1009.3
20260510004759 13 201 0.0 0.0 0.00 0.64 0.64 90 1009.2
20260510004256 13 201 0.0 0.0 0.00 0.64 0.64 88 1009.2
20260510003753 14 201 0.0 0.0 0.00 0.64 0.64 86 1009.0
20260510003250 15 201 0.0 0.0 0.00 0.64 0.64 86 1008.9
20260510002748 15 201 0.0 0.0 0.00 0.64 0.64 82 1009.0
20260510002247 15 201 0.0 0.0 0.00 0.64 0.64 83 1008.8
20260510001743 16 201 0.0 0.0 0.00 0.64 0.64 78 1008.8
20260510001242 16 201 0.0 0.0 0.00 0.64 0.64 79 1008.7
20260510000737 16 201 0.0 0.0 0.00 0.64 0.64 76 1008.6
20260510000235 17 201 1.6 1.6 0.00 0.64 0.64 74 1008.7
20260509235731 17 200 0.0 0.0 0.00 0.64 0.64 70 1008.6
20260509235227 18 201 1.6 1.6 0.00 0.64 0.64 65 1008.7
20260509234723 18 192 0.0 0.0 0.00 0.64 0.64 64 1008.6
20260509234221 19 190 1.6 1.6 0.00 0.64 0.64 62 1008.6
20260509233719 19 201 0.0 1.6 0.00 0.64 0.64 62 1008.6
20260509233216 20 187 1.6 1.6 0.00 0.64 0.64 57 1008.4
20260509232712 20 207 4.8 4.8 0.00 0.64 0.64 54 1008.7
20260509232209 21 215 1.6 3.2 0.00 0.64 0.64 52 1008.5
20260509231700 20 178 4.8 6.4 0.00 0.64 0.64 54 1008.5
20260509231158 20 192 1.6 1.6 0.00 0.64 0.64 55 1008.5
20260509230654 20 195 0.0 0.0 0.00 0.64 0.64 56 1008.2
20260509230151 20 212 3.2 3.2 0.00 0.64 0.64 54 1008.3
20260509225647 21 178 0.0 1.6 0.00 0.64 0.64 53 1008.2
20260509225142 21 187 6.4 6.4 0.00 0.64 0.64 50 1008.4
20260509224638 21 188 3.2 4.8 0.00 0.64 0.64 50 1008.5
20260509224135 22 186 3.2 3.2 0.00 0.64 0.64 50 1008.3
20260509223632 22 149 0.0 1.6 0.00 0.64 0.64 53 1008.4
20260509223130 22 203 3.2 3.2 0.00 0.64 0.64 50 1008.4
20260509222627 22 183 1.6 1.6 0.00 0.64 0.64 50 1008.4
20260509222122 22 196 1.6 1.6 0.00 0.64 0.64 52 1008.4
20260509221618 22 191 1.6 1.6 0.00 0.64 0.64 51 1008.4
20260509221114 22 181 3.2 4.8 0.00 0.64 0.64 50 1008.5
20260509220610 22 185 1.6 3.2 0.00 0.64 0.64 48 1008.6
20260509220107 22 134 4.8 4.8 0.00 0.64 0.64 47 1008.6
20260509215602 22 178 1.6 3.2 0.00 0.64 0.64 47 1008.6
20260509215100 22 182 3.2 3.2 0.00 0.64 0.64 50 1008.5
20260509214557 22 178 6.4 6.4 0.00 0.64 0.64 48 1008.7
20260509214053 22 166 1.6 3.2 0.00 0.64 0.64 48 1008.8
20260509213549 22 196 3.2 3.2 0.00 0.64 0.64 49 1008.8
20260509213046 22 147 4.8 4.8 0.00 0.64 0.64 47 1008.8
20260509212544 22 145 3.2 6.4 0.00 0.64 0.64 47 1008.7
20260509212041 22 181 4.8 4.8 0.00 0.64 0.64 47 1008.8
20260509211536 22 138 3.2 4.8 0.00 0.64 0.64 51 1008.7
20260509211033 21 197 1.6 3.2 0.00 0.64 0.64 49 1008.8
20260509210530 21 206 0.0 1.6 0.00 0.64 0.64 53 1009.0
20260509210026 22 163 1.6 1.6 0.00 0.64 0.64 51 1008.8
20260509205526 22 174 0.0 1.6 0.00 0.64 0.64 48 1008.8
20260509205021 23 197 1.6 1.6 0.00 0.64 0.64 45 1009.0
20260509204518 22 191 3.2 3.2 0.00 0.64 0.64 48 1008.8
20260509204014 22 172 3.2 3.2 0.00 0.64 0.64 51 1008.9
20260509203510 21 178 1.6 1.6 0.00 0.64 0.64 49 1009.1
20260509203009 21 185 1.6 3.2 0.00 0.64 0.64 54 1009.1
20260509202509 22 187 6.4 6.4 0.00 0.64 0.64 52 1008.9
20260509202004 22 192 1.6 1.6 0.00 0.64 0.64 50 1008.9
20260509201459 22 187 1.6 1.6 0.00 0.64 0.64 50 1009.1
20260509200957 22 189 1.6 1.6 0.00 0.64 0.64 53 1009.1
20260509200452 22 170 6.4 6.4 0.00 0.64 0.64 51 1009.2
20260509195948 22 181 1.6 3.2 0.00 0.64 0.64 57 1009.2
20260509195444 21 183 6.4 6.4 0.00 0.64 0.64 57 1009.3
20260509194944 22 194 3.2 4.8 0.00 0.64 0.64 55 1009.3
20260509194440 22 195 3.2 3.2 0.00 0.64 0.64 55 1009.4
20260509193937 21 185 3.2 4.8 0.00 0.64 0.64 53 1009.8
20260509193436 22 213 3.2 4.8 0.00 0.64 0.64 49 1009.6
20260509192933 22 221 3.2 4.8 0.00 0.64 0.64 50 1009.8
20260509192429 20 201 0.0 0.0 0.00 0.64 0.64 55 1009.9
20260509191924 20 206 1.6 1.6 0.00 0.64 0.64 54 1009.9
20260509191420 20 193 1.6 3.2 0.00 0.64 0.64 55 1009.8
20260509190916 20 20 3.2 3.2 0.00 0.64 0.64 62 1009.6
20260509190414 20 151 4.8 4.8 0.00 0.64 0.64 56 1009.8
20260509185911 20 182 1.6 1.6 0.00 0.64 0.64 60 1009.9
20260509185408 20 32 4.8 6.4 0.00 0.64 0.64 55 1009.9
20260509184905 20 188 1.6 1.6 0.00 0.64 0.64 54 1009.8
20260509184401 20 184 3.2 3.2 0.00 0.64 0.64 58 1009.9
20260509183859 20 137 4.8 6.4 0.00 0.64 0.64 58 1009.9
20260509183353 20 173 4.8 4.8 0.00 0.64 0.64 57 1010.1
20260509182849 20 191 4.8 4.8 0.00 0.64 0.64 57 1009.9
20260509182347 20 280 1.6 3.2 0.00 0.64 0.64 55 1009.9
20260509181844 21 174 1.6 3.2 0.00 0.64 0.64 59 1010.0
20260509181341 21 90 1.6 3.2 0.00 0.64 0.64 54 1009.9
20260509180839 21 154 3.2 4.8 0.00 0.64 0.64 56 1009.9
20260509180334 20 178 3.2 4.8 0.00 0.64 0.64 58 1010.1
20260509175831 20 191 1.6 1.6 0.00 0.64 0.64 56 1010.0
20260509175327 20 205 1.6 1.6 0.00 0.64 0.64 55 1010.1
20260509174823 20 153 4.8 6.4 0.00 0.64 0.64 54 1010.1
20260509174319 20 297 1.6 3.2 0.00 0.64 0.64 57 1010.2
20260509173815 19 162 6.4 6.4 0.00 0.64 0.64 55 1010.2
20260509173311 20 175 3.2 3.2 0.00 0.64 0.64 55 1010.1
20260509172807 20 189 3.2 3.2 0.00 0.64 0.64 61 1010.1
20260509172306 19 187 6.4 6.4 0.00 0.64 0.64 58 1010.3
20260509171800 19 144 3.2 3.2 0.00 0.64 0.64 62 1010.1
20260509171256 18 178 3.2 3.2 0.00 0.64 0.64 64 1010.2
20260509170753 19 188 3.2 3.2 0.00 0.64 0.64 64 1010.1
20260509170249 18 186 0.0 1.6 0.00 0.64 0.64 64 1010.0
20260509165748 17 165 3.2 4.8 0.00 0.64 0.64 65 1010.3
20260509165243 17 183 1.6 3.2 0.00 0.64 0.64 65 1010.2